Weather History for Mojave, CA

Change the Weather History Date:

Thursday, July 4, 2013

  Actual Average Record
Temperature  
Mean Temperature 94 °F -  
Max Temperature 105 °F 95 °F 111 °F (2007)
Min Temperature 84 °F 67 °F 52 °F (1966)
Cooling Degree Days 30    
Growing Degree Days 44 (Base 50)    
Moisture  
Dew Point 49 °F    
Average Humidity 22    
Maximum Humidity 29    
Minimum Humidity 14    
Precipitation  
Precipitation 0.00 in - - ()
Sea Level Pressure  
Sea Level Pressure 29.82 in    
Wind  
Wind Speed 17 mph (West)    
Max Wind Speed 29 mph    
Max Gust Speed 37 mph    
Visibility 10 miles    
Events      
Averages and records for this station are not official NWS values.
T = Trace of Precipitation, MM = Missing Value Source: NWS Daily Summary

Daily Weather History Graph

Daily Weather History Graph

Search for Another Location

Airport:

Trip Planner

Search our weather history database for the weather conditions in past years. The results will help you decide how hot, cold, wet, or windy it might be!

Date:

Astronomy

Jul. 04, 2013 Rise Set
Actual Time 5:43 AM PDT 8:10 PM PDT
Civil Twilight 5:14 AM PDT 8:39 PM PDT
Nautical Twilight 4:37 AM PDT 9:16 PM PDT
Astronomical Twilight 3:57 AM PDT 9:56 PM PDT
Moon 3:00 AM PDT (7/4) 5:21 PM PDT (7/4)
Length of Visible Light 15h 25m
Length of Day
14h 26m
Waning Crescent, 11% of the Moon is Illuminated
Jul 4
Waning Crescent
Jul 8
New
Jul 15
First Quarter
Jul 22
Full
Jul 29
Last Quarter

Hourly Weather History & Observations

Time (PDT) Temp. Heat Index Dew Point Humidity Pressure Visibility Wind Dir Wind Speed Gust Speed Precip Events Conditions
12:15 AM 87.8 °F - 50.0 °F 27% 29.85 in 10.0 mi West 23.0 mph 26.5 mph N/A   Clear
12:35 AM 87.8 °F - 50.0 °F 27% 29.85 in 10.0 mi West 19.6 mph 27.6 mph N/A   Clear
12:55 AM 87.8 °F - 50.0 °F 27% 29.85 in 10.0 mi WNW 21.9 mph 29.9 mph N/A   Clear
1:15 AM 86.0 °F - 50.0 °F 29% 29.86 in 10.0 mi West 21.9 mph 27.6 mph N/A   Clear
1:35 AM 86.0 °F - 50.0 °F 29% 29.85 in 10.0 mi West 21.9 mph - N/A   Clear
1:55 AM 86.0 °F - 48.2 °F 27% 29.85 in 10.0 mi West 20.7 mph - N/A   Clear
2:15 AM 86.0 °F - 50.0 °F 29% 29.84 in 10.0 mi West 21.9 mph 26.5 mph N/A   Clear
2:35 AM 86.0 °F - 48.2 °F 27% 29.84 in 10.0 mi West 20.7 mph 24.2 mph N/A   Clear
2:55 AM 86.0 °F - 46.4 °F 25% 29.84 in 10.0 mi West 19.6 mph 27.6 mph N/A   Clear
3:15 AM 86.0 °F - 46.4 °F 25% 29.83 in 10.0 mi West 19.6 mph - N/A   Clear
3:35 AM 86.0 °F - 46.4 °F 25% 29.83 in 10.0 mi West 17.3 mph - N/A   Clear
3:55 AM 86.0 °F - 46.4 °F 25% 29.82 in 10.0 mi WNW 19.6 mph 25.3 mph N/A   Clear
4:15 AM 86.0 °F - 46.4 °F 25% 29.83 in 10.0 mi WNW 17.3 mph - N/A   Clear
4:35 AM 86.0 °F - 46.4 °F 25% 29.82 in 10.0 mi WNW 17.3 mph 24.2 mph N/A   Clear
4:55 AM 86.0 °F - 44.6 °F 23% 29.82 in 10.0 mi WNW 15.0 mph - N/A   Clear
5:15 AM 86.0 °F - 46.4 °F 25% 29.82 in 10.0 mi WNW 15.0 mph - N/A   Clear
5:35 AM 86.0 °F - 46.4 °F 25% 29.82 in 10.0 mi West 16.1 mph - N/A   Clear
5:55 AM 86.0 °F - 46.4 °F 25% 29.83 in 10.0 mi WNW 16.1 mph - N/A   Clear
6:15 AM 84.2 °F - 48.2 °F 29% 29.83 in 10.0 mi WNW 15.0 mph - N/A   Clear
6:35 AM 86.0 °F - 48.2 °F 27% 29.84 in 10.0 mi WNW 13.8 mph - N/A   Clear
6:55 AM 86.0 °F - 48.2 °F 27% 29.85 in 10.0 mi NW 11.5 mph 16.1 mph N/A   Clear
7:15 AM 87.8 °F - 48.2 °F 25% 29.85 in 10.0 mi WNW 10.4 mph - N/A   Clear
7:35 AM 89.6 °F - 48.2 °F 24% 29.86 in 10.0 mi NE 4.6 mph - N/A   Clear
7:55 AM 89.6 °F - 48.2 °F 24% 29.86 in 10.0 mi NNW 8.1 mph - N/A   Clear
8:15 AM 91.4 °F - 48.2 °F 23% 29.86 in 10.0 mi NW 6.9 mph - N/A   Clear
8:35 AM 93.2 °F - 50.0 °F 23% 29.86 in 10.0 mi North 6.9 mph - N/A   Clear
8:55 AM 91.4 °F - 48.2 °F 23% 29.86 in 10.0 mi East 4.6 mph - N/A   Clear
9:15 AM 93.2 °F - 48.2 °F 21% 29.86 in 10.0 mi Calm Calm - N/A   Clear
9:35 AM 95.0 °F - 48.2 °F 20% 29.85 in 10.0 mi Calm Calm - N/A   Clear
9:55 AM 98.6 °F - 48.2 °F 18% 29.85 in 10.0 mi Calm Calm - N/A   Clear
10:15 AM 98.6 °F - 48.2 °F 18% 29.85 in 10.0 mi SSE 3.5 mph - N/A   Clear
10:35 AM 98.6 °F - 46.4 °F 17% 29.85 in 10.0 mi SSW 3.5 mph - N/A   Clear
10:55 AM 100.4 °F - 46.4 °F 16% 29.84 in 10.0 mi Calm Calm - N/A   Clear
11:15 AM 100.4 °F - 46.4 °F 16% 29.84 in 10.0 mi WSW 4.6 mph - N/A   Clear
11:35 AM 100.4 °F - 46.4 °F 16% 29.84 in 10.0 mi SSE 4.6 mph - N/A   Clear
11:55 AM 100.4 °F - 46.4 °F 16% 29.84 in 10.0 mi ENE 4.6 mph - N/A   Clear
12:15 PM 102.2 °F - 46.4 °F 15% 29.84 in 10.0 mi Calm Calm - N/A   Clear
12:35 PM 104.0 °F - 46.4 °F 14% 29.83 in 10.0 mi SSW 4.6 mph - N/A   Clear
12:55 PM 102.2 °F - 46.4 °F 15% 29.83 in 10.0 mi SSE 5.8 mph - N/A   Clear
1:15 PM 104.0 °F - 46.4 °F 14% 29.82 in 10.0 mi SSW 9.2 mph - N/A   Clear
1:35 PM 104.0 °F - 46.4 °F 14% 29.81 in 10.0 mi SSE 6.9 mph 16.1 mph N/A   Clear
1:55 PM 105.8 °F - 46.4 °F 14% 29.81 in 10.0 mi SSW 17.3 mph 20.7 mph N/A   Clear
2:15 PM 105.8 °F - 46.4 °F 14% 29.80 in 10.0 mi SSW 18.4 mph 21.9 mph N/A   Clear
2:35 PM 104.0 °F - 46.4 °F 14% 29.80 in 10.0 mi South 13.8 mph 19.6 mph N/A   Clear
2:55 PM 104.0 °F - 46.4 °F 14% 29.79 in 10.0 mi SSW 19.6 mph 26.5 mph N/A   Clear
3:15 PM 105.8 °F - 46.4 °F 14% 29.78 in 10.0 mi WSW 15.0 mph 27.6 mph N/A   Clear
3:35 PM 105.8 °F - 50.0 °F 15% 29.77 in 10.0 mi West 17.3 mph 24.2 mph N/A   Clear
3:55 PM 104.0 °F - 50.0 °F 16% 29.77 in 10.0 mi West 20.7 mph 26.5 mph N/A   Clear
4:15 PM 104.0 °F - 50.0 °F 16% 29.77 in 10.0 mi WNW 18.4 mph 26.5 mph N/A   Clear
4:35 PM 102.2 °F - 51.8 °F 18% 29.77 in 10.0 mi West 17.3 mph 28.8 mph N/A   Clear
4:55 PM 102.2 °F - 51.8 °F 18% 29.77 in 10.0 mi WNW 21.9 mph 28.8 mph N/A   Clear
5:15 PM 100.4 °F - 51.8 °F 20% 29.77 in 10.0 mi West 23.0 mph 29.9 mph N/A   Clear
5:35 PM 100.4 °F 98.4 °F 53.6 °F 21% 29.77 in 10.0 mi West 21.9 mph 28.8 mph N/A   Clear
5:55 PM 100.4 °F 98.4 °F 53.6 °F 21% 29.77 in 10.0 mi West 20.7 mph 28.8 mph N/A   Clear
6:15 PM 98.6 °F 96.4 °F 53.6 °F 22% 29.77 in 10.0 mi West 20.7 mph 31.1 mph N/A   Clear
6:35 PM 96.8 °F 94.4 °F 53.6 °F 23% 29.76 in 10.0 mi West 27.6 mph 32.2 mph N/A   Clear
6:55 PM 95.0 °F 92.7 °F 53.6 °F 25% 29.76 in 10.0 mi WNW 28.8 mph 35.7 mph N/A   Clear
7:15 PM 95.0 °F - 50.0 °F 22% 29.77 in 10.0 mi West 24.2 mph 31.1 mph N/A   Clear
7:35 PM 95.0 °F - 50.0 °F 22% 29.78 in 10.0 mi West 18.4 mph 31.1 mph N/A   Clear
7:55 PM 93.2 °F - 50.0 °F 23% 29.78 in 10.0 mi West 20.7 mph 27.6 mph N/A   Clear
8:15 PM 93.2 °F - 50.0 °F 23% 29.78 in 10.0 mi West 19.6 mph 31.1 mph N/A   Clear
8:35 PM 91.4 °F - 51.8 °F 26% 29.78 in 10.0 mi WNW 25.3 mph 33.4 mph N/A   Clear
8:55 PM 91.4 °F - 51.8 °F 26% 29.78 in 10.0 mi WNW 26.5 mph 34.5 mph N/A   Clear
9:15 PM 91.4 °F 89.1 °F 53.6 °F 28% 29.79 in 10.0 mi WNW 24.2 mph 35.7 mph N/A   Clear
9:35 PM 89.6 °F 87.3 °F 53.6 °F 29% 29.79 in 10.0 mi West 25.3 mph 35.7 mph N/A   Clear
9:55 PM 89.6 °F 87.3 °F 53.6 °F 29% 29.80 in 10.0 mi West 25.3 mph 33.4 mph N/A   Clear
10:15 PM 89.6 °F - 51.8 °F 27% 29.80 in 10.0 mi West 25.3 mph 36.8 mph N/A   Clear
10:35 PM 89.6 °F - 51.8 °F 27% 29.80 in 10.0 mi WNW 27.6 mph 35.7 mph N/A   Clear
10:55 PM 89.6 °F - 51.8 °F 27% 29.81 in 10.0 mi WNW 19.6 mph 29.9 mph N/A   Clear
11:15 PM 89.6 °F - 51.8 °F 27% 29.81 in 10.0 mi WNW 19.6 mph 28.8 mph N/A   Clear
11:35 PM 89.6 °F - 51.8 °F 27% 29.81 in 10.0 mi West 23.0 mph 32.2 mph N/A   Clear
11:55 PM 87.8 °F - 51.8 °F 29% 29.81 in 10.0 mi West 23.0 mph 32.2 mph N/A   Clear